Location: Tel Aviv
(32.0670°N, 34.7670°E)
Time: 11:59:18
(UTC+03:00)

Transit 2A - Pass Details

Date: 27 January 2022
Orbit: 598 x 960 km, 66.7° (Epoch: 20 May)

Event Time Altitude Azimuth Distance (km) Brightness Sun altitude
Rises 19:11:01 0° 342° (NNW) 3,542 9.6 -25.7°
Reaches altitude 10° 19:13:49 10° 350° (N) 2,551 8.7 -26.3°
Enters shadow 19:16:10 22° 4° (N) 1,797 7.8 -26.8°
Maximum altitude 19:19:18 38° 58° (ENE) 1,241 - -27.4°
Drops below altitude 10° 19:24:16 10° 126° (SE) 2,316 - -28.5°
Sets 19:26:41 0° 134° (SE) 3,179 - -29.0°
